Time,TemperatureF,DewpointF,PressureIn,WindDirection,WindDirectionDegrees,WindSpeedMPH,WindSpeedGustMPH,Humidity,HourlyPrecipIn,Conditions,Clouds,dailyrainin,SoftwareType,DateUTC
2013-02-17 00:01:00,44.0,38.0,30.05,SSW,209,3.0,-999.0,80,-99.99,,,-99.99,,2013-02-17 08:01:00,
2013-02-17 00:11:00,44.0,38.0,30.05,SSW,209,3.0,-999.0,80,-99.99,,,-99.99,,2013-02-17 08:11:00,
2013-02-17 00:21:00,44.0,38.0,30.05,SSW,210,3.0,-999.0,79,-99.99,,,-99.99,,2013-02-17 08:21:00,
2013-02-17 00:31:00,43.0,37.0,30.06,SSW,212,2.0,-999.0,80,-99.99,,,-99.99,,2013-02-17 08:31:00,
2013-02-17 00:41:00,43.0,37.0,30.06,SSW,212,2.0,-999.0,80,-99.99,,,-99.99,,2013-02-17 08:41:00,
2013-02-17 00:52:00,43.0,37.0,30.06,SW,229,2.0,-999.0,80,-99.99,,,-99.99,,2013-02-17 08:52:00,
2013-02-17 01:01:00,43.0,38.0,30.07,SSW,213,3.0,-999.0,81,-99.99,,,-99.99,,2013-02-17 09:01:00,
2013-02-17 01:11:00,43.0,38.0,30.07,SSW,213,3.0,-999.0,81,-99.99,,,-99.99,,2013-02-17 09:11:00,
2013-02-17 01:21:00,43.0,37.0,30.07,SW,232,2.0,-999.0,80,-99.99,,,-99.99,,2013-02-17 09:21:00,
2013-02-17 01:31:00,43.0,37.0,30.08,SSW,206,3.0,-999.0,79,-99.99,,,-99.99,,2013-02-17 09:31:00,
2013-02-17 01:41:00,43.0,37.0,30.08,SSW,206,3.0,-999.0,79,-99.99,,,-99.99,,2013-02-17 09:41:00,
2013-02-17 01:52:00,42.0,36.0,30.08,SSW,196,3.0,-999.0,78,-99.99,,,-99.99,,2013-02-17 09:52:00,
2013-02-17 02:01:00,42.0,36.0,30.08,South,188,2.0,-999.0,79,-99.99,,,-99.99,,2013-02-17 10:01:00,
2013-02-17 02:11:00,42.0,36.0,30.08,South,188,2.0,-999.0,79,-99.99,,,-99.99,,2013-02-17 10:11:00,
2013-02-17 02:21:00,41.0,35.0,30.09,South,179,2.0,-999.0,79,-99.99,,,-99.99,,2013-02-17 10:21:00,
2013-02-17 02:31:00,41.0,35.0,30.09,South,182,1.0,-999.0,79,-99.99,,,-99.99,,2013-02-17 10:31:00,
2013-02-17 02:41:00,41.0,35.0,30.09,South,182,1.0,-999.0,79,-99.99,,,-99.99,,2013-02-17 10:41:00,
2013-02-17 02:52:00,41.0,35.0,30.09,South,175,2.0,-999.0,79,-99.99,,,-99.99,,2013-02-17 10:52:00,
2013-02-17 03:01:00,40.0,34.0,30.09,South,175,1.0,-999.0,79,-99.99,,,-99.99,,2013-02-17 11:01:00,
2013-02-17 03:11:00,40.0,34.0,30.09,South,175,1.0,-999.0,79,-99.99,,,-99.99,,2013-02-17 11:11:00,
2013-02-17 03:21:00,40.0,34.0,30.09,SSE,164,1.0,-999.0,80,-99.99,,,-99.99,,2013-02-17 11:21:00,
2013-02-17 03:32:00,40.0,34.0,30.09,South,178,2.0,-999.0,80,-99.99,,,-99.99,,2013-02-17 11:32:00,
2013-02-17 03:41:00,40.0,34.0,30.09,South,178,2.0,-999.0,80,-99.99,,,-99.99,,2013-02-17 11:41:00,
2013-02-17 03:52:00,40.0,34.0,30.09,SSW,209,2.0,-999.0,80,-99.99,,,-99.99,,2013-02-17 11:52:00,
2013-02-17 04:02:00,40.0,34.0,30.10,South,186,2.0,-999.0,79,-99.99,,,-99.99,,2013-02-17 12:02:00,
2013-02-17 04:11:00,40.0,34.0,30.10,South,186,2.0,-999.0,79,-99.99,,,-99.99,,2013-02-17 12:11:00,
2013-02-17 04:22:00,41.0,35.0,30.09,SSW,200,2.0,-999.0,79,-99.99,,,-99.99,,2013-02-17 12:22:00,
2013-02-17 04:31:00,40.0,34.0,30.09,SSW,192,0.0,-999.0,78,-99.99,,,-99.99,,2013-02-17 12:31:00,
2013-02-17 04:42:00,40.0,34.0,30.09,SSW,192,0.0,-999.0,78,-99.99,,,-99.99,,2013-02-17 12:42:00,
2013-02-17 04:52:00,40.0,34.0,30.09,South,189,0.0,-999.0,78,-99.99,,,-99.99,,2013-02-17 12:52:00,
2013-02-17 05:01:00,40.0,34.0,30.10,South,185,0.0,-999.0,78,-99.99,,,-99.99,,2013-02-17 13:01:00,
2013-02-17 05:11:00,40.0,34.0,30.10,South,185,0.0,-999.0,78,-99.99,,,-99.99,,2013-02-17 13:11:00,
2013-02-17 05:21:00,39.0,33.0,30.10,South,185,0.0,-999.0,80,-99.99,,,-99.99,,2013-02-17 13:21:00,
2013-02-17 05:32:00,38.0,33.0,30.10,South,185,0.0,-999.0,81,-99.99,,,-99.99,,2013-02-17 13:32:00,
2013-02-17 05:41:00,38.0,33.0,30.10,South,185,0.0,-999.0,81,-99.99,,,-99.99,,2013-02-17 13:41:00,
2013-02-17 05:52:00,38.0,33.0,30.10,SE,126,0.0,-999.0,83,-99.99,,,-99.99,,2013-02-17 13:52:00,
2013-02-17 06:01:00,37.0,33.0,30.10,SSE,151,0.0,-999.0,84,-99.99,,,-99.99,,2013-02-17 14:01:00,
2013-02-17 06:11:00,37.0,33.0,30.10,SSE,151,0.0,-999.0,84,-99.99,,,-99.99,,2013-02-17 14:11:00,
2013-02-17 06:21:00,38.0,34.0,30.11,SE,131,2.0,-999.0,84,-99.99,,,-99.99,,2013-02-17 14:21:00,
2013-02-17 06:32:00,37.0,33.0,30.11,SE,138,0.0,-999.0,84,-99.99,,,-99.99,,2013-02-17 14:32:00,
2013-02-17 06:42:00,37.0,33.0,30.11,SE,138,0.0,-999.0,84,-99.99,,,-99.99,,2013-02-17 14:42:00,
2013-02-17 06:52:00,38.0,33.0,30.11,SSE,148,1.0,-999.0,83,-99.99,,,-99.99,,2013-02-17 14:52:00,
2013-02-17 07:01:00,39.0,34.0,30.11,ESE,121,2.0,-999.0,81,-99.99,,,-99.99,,2013-02-17 15:01:00,
2013-02-17 07:11:00,39.0,34.0,30.11,ESE,121,2.0,-999.0,81,-99.99,,,-99.99,,2013-02-17 15:11:00,
2013-02-17 07:21:00,39.0,33.0,30.11,SE,134,0.0,-999.0,80,-99.99,,,-99.99,,2013-02-17 15:21:00,
2013-02-17 07:31:00,39.0,33.0,30.11,SE,136,0.0,-999.0,80,-99.99,,,-99.99,,2013-02-17 15:31:00,
2013-02-17 07:41:00,39.0,33.0,30.11,SE,136,0.0,-999.0,80,-99.99,,,-99.99,,2013-02-17 15:41:00,
2013-02-17 07:52:00,39.0,33.0,30.11,ESE,110,1.0,-999.0,80,-99.99,,,-99.99,,2013-02-17 15:52:00,
2013-02-17 08:01:00,39.0,33.0,30.12,SSE,167,1.0,-999.0,80,-99.99,,,-99.99,,2013-02-17 16:01:00,
2013-02-17 08:11:00,39.0,33.0,30.12,SSE,167,1.0,-999.0,80,-99.99,,,-99.99,,2013-02-17 16:11:00,
2013-02-17 08:21:00,39.0,33.0,30.13,SSE,161,0.0,-999.0,80,-99.99,,,-99.99,,2013-02-17 16:21:00,
2013-02-17 08:31:00,39.0,33.0,30.13,SSE,160,0.0,-999.0,80,-99.99,,,-99.99,,2013-02-17 16:31:00,
2013-02-17 08:41:00,39.0,33.0,30.13,SSE,160,0.0,-999.0,80,-99.99,,,-99.99,,2013-02-17 16:41:00,
2013-02-17 08:52:00,40.0,34.0,30.13,SSE,160,0.0,-999.0,78,-99.99,,,-99.99,,2013-02-17 16:52:00,
2013-02-17 09:02:00,41.0,34.0,30.13,SE,138,3.0,-999.0,76,-99.99,,,-99.99,,2013-02-17 17:02:00,
2013-02-17 09:11:00,41.0,34.0,30.13,SE,138,3.0,-999.0,76,-99.99,,,-99.99,,2013-02-17 17:11:00,
2013-02-17 09:21:00,42.0,34.0,30.13,SE,144,1.0,-999.0,74,-99.99,,,-99.99,,2013-02-17 17:21:00,
2013-02-17 09:31:00,42.0,34.0,30.14,ESE,119,1.0,-999.0,73,-99.99,,,-99.99,,2013-02-17 17:31:00,
2013-02-17 09:41:00,42.0,34.0,30.14,ESE,119,1.0,-999.0,73,-99.99,,,-99.99,,2013-02-17 17:41:00,
2013-02-17 09:52:00,42.0,34.0,30.14,SE,134,2.0,-999.0,74,-99.99,,,-99.99,,2013-02-17 17:52:00,
2013-02-17 10:01:00,42.0,35.0,30.14,SSE,148,1.0,-999.0,75,-99.99,,,-99.99,,2013-02-17 18:01:00,
2013-02-17 10:11:00,42.0,35.0,30.14,SSE,148,1.0,-999.0,75,-99.99,,,-99.99,,2013-02-17 18:11:00,
2013-02-17 10:21:00,42.0,35.0,30.14,ESE,103,0.0,-999.0,75,-99.99,,,-99.99,,2013-02-17 18:21:00,
2013-02-17 10:33:00,43.0,35.0,30.14,SSE,162,2.0,-999.0,72,-99.99,,,-99.99,,2013-02-17 18:33:00,
2013-02-17 10:41:00,43.0,35.0,30.14,SSE,162,2.0,-999.0,72,-99.99,,,-99.99,,2013-02-17 18:41:00,
2013-02-17 10:52:00,43.0,34.0,30.14,SSE,160,2.0,-999.0,71,-99.99,,,-99.99,,2013-02-17 18:52:00,
2013-02-17 11:01:00,43.0,34.0,30.14,South,189,2.0,-999.0,70,-99.99,,,-99.99,,2013-02-17 19:01:00,
2013-02-17 11:11:00,43.0,34.0,30.14,South,189,2.0,-999.0,70,-99.99,,,-99.99,,2013-02-17 19:11:00,
2013-02-17 11:21:00,44.0,34.0,30.14,South,172,2.0,-999.0,68,-99.99,,,-99.99,,2013-02-17 19:21:00,
2013-02-17 11:31:00,44.0,34.0,30.14,SSE,151,2.0,-999.0,68,-99.99,,,-99.99,,2013-02-17 19:31:00,
2013-02-17 11:41:00,44.0,34.0,30.14,SSE,151,2.0,-999.0,68,-99.99,,,-99.99,,2013-02-17 19:41:00,
2013-02-17 11:52:00,44.0,33.0,30.14,ESE,120,2.0,-999.0,65,-99.99,,,-99.99,,2013-02-17 19:52:00,
2013-02-17 12:01:00,44.0,33.0,30.14,SSW,208,2.0,-999.0,64,-99.99,,,-99.99,,2013-02-17 20:01:00,
2013-02-17 12:11:00,44.0,33.0,30.14,SSW,208,2.0,-999.0,64,-99.99,,,-99.99,,2013-02-17 20:11:00,
2013-02-17 12:21:00,44.0,32.0,30.14,South,172,2.0,-999.0,63,-99.99,,,-99.99,,2013-02-17 20:21:00,
2013-02-17 12:31:00,44.0,33.0,30.14,SE,140,3.0,-999.0,66,-99.99,,,-99.99,,2013-02-17 20:31:00,
2013-02-17 12:42:00,44.0,33.0,30.14,SE,140,3.0,-999.0,66,-99.99,,,-99.99,,2013-02-17 20:42:00,
2013-02-17 12:52:00,44.0,31.0,30.14,SSE,162,3.0,-999.0,60,-99.99,,,-99.99,,2013-02-17 20:52:00,
2013-02-17 13:01:00,45.0,32.0,30.14,WSW,257,1.0,-999.0,61,-99.99,,,-99.99,,2013-02-17 21:01:00,
2013-02-17 13:11:00,45.0,32.0,30.14,WSW,257,1.0,-999.0,61,-99.99,,,-99.99,,2013-02-17 21:11:00,
2013-02-17 13:21:00,44.0,33.0,30.14,SE,130,3.0,-999.0,64,-99.99,,,-99.99,,2013-02-17 21:21:00,
2013-02-17 13:31:00,44.0,33.0,30.13,SE,143,2.0,-999.0,65,-99.99,,,-99.99,,2013-02-17 21:31:00,
2013-02-17 13:41:00,44.0,33.0,30.13,SE,143,2.0,-999.0,65,-99.99,,,-99.99,,2013-02-17 21:41:00,
2013-02-17 13:52:00,45.0,34.0,30.13,SSE,168,2.0,-999.0,64,-99.99,,,-99.99,,2013-02-17 21:52:00,
2013-02-17 14:01:00,44.0,33.0,30.13,SSE,155,3.0,-999.0,66,-99.99,,,-99.99,,2013-02-17 22:01:00,
2013-02-17 14:11:00,44.0,33.0,30.13,SSE,155,3.0,-999.0,66,-99.99,,,-99.99,,2013-02-17 22:11:00,
2013-02-17 14:21:00,44.0,33.0,30.13,SSE,155,2.0,-999.0,64,-99.99,,,-99.99,,2013-02-17 22:21:00,
2013-02-17 14:32:00,44.0,33.0,30.13,SE,141,1.0,-999.0,64,-99.99,,,-99.99,,2013-02-17 22:32:00,
2013-02-17 14:41:00,44.0,33.0,30.13,SE,141,1.0,-999.0,64,-99.99,,,-99.99,,2013-02-17 22:41:00,
2013-02-17 14:52:00,44.0,33.0,30.13,NW,313,1.0,-999.0,66,-99.99,,,-99.99,,2013-02-17 22:52:00,
2013-02-17 15:01:00,44.0,34.0,30.12,NW,311,1.0,-999.0,67,-99.99,,,-99.99,,2013-02-17 23:01:00,
2013-02-17 15:11:00,44.0,34.0,30.12,NW,311,1.0,-999.0,67,-99.99,,,-99.99,,2013-02-17 23:11:00,
2013-02-17 15:21:00,44.0,34.0,30.12,North,1,1.0,-999.0,69,-99.99,,,-99.99,,2013-02-17 23:21:00,
2013-02-17 15:31:00,44.0,36.0,30.11,North,359,1.0,-999.0,72,-99.99,,,-99.99,,2013-02-17 23:31:00,
2013-02-17 15:41:00,44.0,36.0,30.11,North,359,1.0,-999.0,72,-99.99,,,-99.99,,2013-02-17 23:41:00,
2013-02-17 15:52:00,44.0,34.0,30.11,NNE,32,1.0,-999.0,69,-99.99,,,-99.99,,2013-02-17 23:52:00,
2013-02-17 16:01:00,44.0,34.0,30.11,NNE,31,1.0,-999.0,68,-99.99,,,-99.99,,2013-02-18 00:01:00,
2013-02-17 16:11:00,44.0,34.0,30.11,NNE,31,1.0,-999.0,68,-99.99,,,-99.99,,2013-02-18 00:11:00,
2013-02-17 16:22:00,44.0,34.0,30.11,ENE,58,1.0,-999.0,69,-99.99,,,-99.99,,2013-02-18 00:22:00,
2013-02-17 16:31:00,44.0,34.0,30.11,ENE,58,0.0,-999.0,69,-99.99,,,-99.99,,2013-02-18 00:31:00,
2013-02-17 16:41:00,44.0,34.0,30.11,ENE,58,0.0,-999.0,69,-99.99,,,-99.99,,2013-02-18 00:41:00,
2013-02-17 16:52:00,44.0,34.0,30.11,ENE,58,0.0,-999.0,69,-99.99,,,-99.99,,2013-02-18 00:52:00,
2013-02-17 17:01:00,44.0,34.0,30.10,ENE,58,0.0,-999.0,69,-99.99,,,-99.99,,2013-02-18 01:01:00,
2013-02-17 17:11:00,44.0,34.0,30.10,ENE,58,0.0,-999.0,69,-99.99,,,-99.99,,2013-02-18 01:11:00,
2013-02-17 17:21:00,43.0,34.0,30.10,ENE,58,0.0,-999.0,70,-99.99,,,-99.99,,2013-02-18 01:21:00,
2013-02-17 17:31:00,43.0,34.0,30.10,ENE,58,0.0,-999.0,71,-99.99,,,-99.99,,2013-02-18 01:31:00,
2013-02-17 17:41:00,43.0,34.0,30.10,ENE,58,0.0,-999.0,71,-99.99,,,-99.99,,2013-02-18 01:41:00,
2013-02-17 17:51:00,43.0,34.0,30.09,ENE,58,0.0,-999.0,70,-99.99,,,-99.99,,2013-02-18 01:51:00,
2013-02-17 18:01:00,43.0,34.0,30.09,ENE,58,0.0,-999.0,71,-99.99,,,-99.99,,2013-02-18 02:01:00,
2013-02-17 18:11:00,43.0,34.0,30.09,ENE,58,0.0,-999.0,71,-99.99,,,-99.99,,2013-02-18 02:11:00,
2013-02-17 18:21:00,43.0,34.0,30.09,ENE,58,0.0,-999.0,71,-99.99,,,-99.99,,2013-02-18 02:21:00,
2013-02-17 18:31:00,43.0,34.0,30.09,ENE,58,0.0,-999.0,71,-99.99,,,-99.99,,2013-02-18 02:31:00,
2013-02-17 18:41:00,43.0,34.0,30.09,ENE,58,0.0,-999.0,71,-99.99,,,-99.99,,2013-02-18 02:41:00,
2013-02-17 18:52:00,43.0,35.0,30.09,ENE,58,0.0,-999.0,72,-99.99,,,-99.99,,2013-02-18 02:52:00,
2013-02-17 19:01:00,42.0,34.0,30.09,ENE,58,0.0,-999.0,74,-99.99,,,-99.99,,2013-02-18 03:01:00,
2013-02-17 19:11:00,42.0,34.0,30.09,ENE,58,0.0,-999.0,74,-99.99,,,-99.99,,2013-02-18 03:11:00,
2013-02-17 19:21:00,42.0,34.0,30.09,ENE,58,0.0,-999.0,74,-99.99,,,-99.99,,2013-02-18 03:21:00,
2013-02-17 19:31:00,42.0,35.0,30.09,ENE,58,0.0,-999.0,76,-99.99,,,-99.99,,2013-02-18 03:31:00,
2013-02-17 19:41:00,42.0,35.0,30.09,ENE,58,0.0,-999.0,76,-99.99,,,-99.99,,2013-02-18 03:41:00,
2013-02-17 19:52:00,41.0,34.0,30.08,ENE,58,0.0,-999.0,77,-99.99,,,-99.99,,2013-02-18 03:52:00,
2013-02-17 20:01:00,41.0,35.0,30.08,ENE,58,0.0,-999.0,79,-99.99,,,-99.99,,2013-02-18 04:01:00,
2013-02-17 20:11:00,41.0,35.0,30.08,ENE,58,0.0,-999.0,79,-99.99,,,-99.99,,2013-02-18 04:11:00,
2013-02-17 20:21:00,40.0,35.0,30.08,ENE,58,0.0,-999.0,81,-99.99,,,-99.99,,2013-02-18 04:21:00,
2013-02-17 20:32:00,40.0,35.0,30.08,ENE,58,0.0,-999.0,83,-99.99,,,-99.99,,2013-02-18 04:32:00,
2013-02-17 20:41:00,40.0,35.0,30.08,ENE,58,0.0,-999.0,83,-99.99,,,-99.99,,2013-02-18 04:41:00,
2013-02-17 20:52:00,40.0,36.0,30.08,ENE,58,0.0,-999.0,84,-99.99,,,-99.99,,2013-02-18 04:52:00,
2013-02-17 21:01:00,39.0,35.0,30.08,ENE,58,0.0,-999.0,84,-99.99,,,-99.99,,2013-02-18 05:01:00,
2013-02-17 21:11:00,39.0,35.0,30.08,ENE,58,0.0,-999.0,84,-99.99,,,-99.99,,2013-02-18 05:11:00,
2013-02-17 21:21:00,39.0,35.0,30.08,ENE,58,0.0,-999.0,85,-99.99,,,-99.99,,2013-02-18 05:21:00,
2013-02-17 21:31:00,39.0,35.0,30.08,ENE,58,0.0,-999.0,86,-99.99,,,-99.99,,2013-02-18 05:31:00,
2013-02-17 21:41:00,39.0,35.0,30.08,ENE,58,0.0,-999.0,86,-99.99,,,-99.99,,2013-02-18 05:41:00,
2013-02-17 21:52:00,39.0,35.0,30.08,ENE,58,0.0,-999.0,86,-99.99,,,-99.99,,2013-02-18 05:52:00,
2013-02-17 22:01:00,39.0,35.0,30.08,ENE,58,0.0,-999.0,87,-99.99,,,-99.99,,2013-02-18 06:01:00,
2013-02-17 22:11:00,39.0,35.0,30.08,ENE,58,0.0,-999.0,87,-99.99,,,-99.99,,2013-02-18 06:11:00,
2013-02-17 22:21:00,39.0,35.0,30.07,ENE,58,0.0,-999.0,87,-99.99,,,-99.99,,2013-02-18 06:21:00,
2013-02-17 22:31:00,39.0,35.0,30.07,ENE,58,0.0,-999.0,87,-99.99,,,-99.99,,2013-02-18 06:31:00,
2013-02-17 22:41:00,38.0,34.0,30.07,ENE,58,0.0,-999.0,87,-99.99,,,-99.99,,2013-02-18 06:41:00,
2013-02-17 22:51:00,38.0,34.0,30.07,ENE,58,0.0,-999.0,87,-99.99,,,-99.99,,2013-02-18 06:51:00,
2013-02-17 23:01:00,38.0,34.0,30.07,ENE,58,0.0,-999.0,87,-99.99,,,-99.99,,2013-02-18 07:01:00,
2013-02-17 23:11:00,38.0,34.0,30.07,ENE,58,0.0,-999.0,87,-99.99,,,-99.99,,2013-02-18 07:11:00,
2013-02-17 23:21:00,38.0,35.0,30.06,ENE,58,0.0,-999.0,88,-99.99,,,-99.99,,2013-02-18 07:21:00,
2013-02-17 23:31:00,38.0,35.0,30.06,ENE,58,0.0,-999.0,88,-99.99,,,-99.99,,2013-02-18 07:31:00,
2013-02-17 23:42:00,38.0,35.0,30.06,ENE,58,0.0,-999.0,88,-99.99,,,-99.99,,2013-02-18 07:42:00,
2013-02-17 23:52:00,38.0,35.0,30.05,ENE,58,0.0,-999.0,89,-99.99,,,-99.99,,2013-02-18 07:52:00,